COSMOS 1158

Satellite information

Favourite Embed

Satellite Type and Status

PAYLOADIN ORBIT

Key statistics

Satellite COSMOS 1158 at a glance.

Uptime

16748

Days in orbit

Revolutions

≈ 12.5

Per day

Orbit

LEO

Low Earth Orbit

Inclination

74.0

Latest

Satellite identification and parameters

Extended collection of information and parameters for COSMOS 1158.

Object identification

Identified? True

Debris? False

Object name: COSMOS 1158

International designator: 1980-012C

Object number (NORAD): 11693

Object ID (CCSDS): 11693

Country: COMMONWEALTH OF INDEPENDENT STATES (CIS)

Current information (Y/N): Y

RCS size: MEDIUM

Orbital parameters

Period: 114.981 minutes

Inclination: 74.0214 deg

SMA: 7832.701 km

Apoapsis: 1475.628 km

Periapsis: 1433.504 km

RAAN: 103.889 deg

Eccentricy: 0.00268902

Argument of periapsis: 60.5281 deg

Mean anomaly: 53.4904 deg

Mean motion: 12.52378054 rev/day

Mean motion (dot): -0.00000027 rev/day2

B* drag term: -0.000071827625 1/REarth

Two-line elements (TLE)

Creation date: Dec. 19, 2025, 2:08 a.m.

Reference frame: TEME

Reference center: EARTH

Epoch: Dec. 18, 2025, 6:28 p.m. UTC

TLE line 0: 0 COSMOS 1158

TLE line 1: 1 11693U 80012C 25352.76980924 -.00000027 00000-0 -71828-4 0 9994

TLE line 2: 2 11693 74.0214 103.8890 0026890 60.5281 53.4904 12.52378054 96137

Live tracking on map

Real-time ground track for satellite COSMOS 1158.

In-orbit conjunctions

A list of the most updated potential collisions computed for object COSMOS 1158.

Target Orbit TCA Probability of collision Miss distance Type
COSMOS 1823 DEB LEO 2025-01-29 00:00:44 0.0001480196 474.0 (m) DEBRIS

Associated space launch

Military communications satellites

COSMOS 1158 was lifted into orbit during the mission ‘Kosmos-3M | Strela-1M 185-192’, on board a Kosmos-3M space rocket.

The launch took place on Feb. 11, 1980, 11:32 p.m. from 132/2.

For more information about the launch, click the button.

Launch to space Kosmos-3M | Strela-1M 185-192
Kosmos-3M | Strela-1M 185-192

Agency: N/A

Status: Launch Successful

Launch date: Feb. 11, 1980, 11:32 p.m. UTC

Rocket: Kosmos-3M

Launch pad: 132/2

Location: Plesetsk Cosmodrome, Russian Federation

...

Latest news about this satellite

There are no fresh news available about this satellite. Check back as we update our databases every day.


Newsletter sign-up

Weekly statistics, charts and insights to help you stay on top of the space industry.